[[{"header":{"parameterUnit":"m.s-1","parameterCategory":1,"la1":30.2992,"la2":30.254,"lo1":-89.0895,"lo2":-89.0443,"dy":0.0025,"dx":0.0025,"nx":19,"ny":19,"refTime":"2026-04-15T21:00:00:Z","depth":0,"parameterNumber":2,"parameterNumberName":"U-component_of_WINDS"},"data":[0,0,0,-2.0445,-2.0443,-2.037,-2.0369,-2.0291,-2.029,0,0,0,0,0,0,0,0,0,0,0,-2.0477,-2.0477,-2.0445,-2.0443,-2.037,-2.0369,-2.0291,-2.029,0,0,0,0,0,0,0,0,0,0,0,-2.0477,-2.0477,-2.0477,-2.0443,-2.037,-2.0369,-2.0291,-2.0341,0,0,0,0,0,0,0,0,0,0,-2.0409,-2.045,-2.0477,-2.0477,-2.0443,-2.037,-2.0369,-2.0343,-2.0337,-2.0331,0,-2.0329,0,-2.0309,-2.0286,-2.0286,0,0,0,-2.0435,-2.0454,-2.0425,-2.0477,-2.0442,-2.037,-2.0401,-2.034,-2.0334,-2.0324,-2.0328,-2.0324,-2.0307,-2.0285,-2.0285,-2.028,-2.028,0,0,-2.0439,-2.0469,-2.0429,-2.0422,-2.0435,-2.0403,-2.0398,-2.0336,-2.0341,-2.0328,-2.0322,-2.0306,-2.0285,-2.0285,-2.0279,-2.028,0,0,0,-2.0456,-2.0472,-2.0444,-2.0426,-2.0411,-2.0401,-2.0396,-2.0344,-2.0332,-2.0321,-2.0305,-2.0285,-2.0284,-2.0279,-2.0279,-2.0327,0,0,0,-2.0458,-2.0482,-2.0446,-2.0464,-2.0413,-2.0377,-2.0406,-2.0337,-2.0329,-2.0306,-2.0285,-2.0283,-2.0278,-2.0279,-2.0325,-2.0344,0,0,0,-2.0478,-2.0484,-2.0478,-2.0466,-2.0435,-2.0377,-2.0362,-2.0334,-2.0319,-2.0286,-2.0283,-2.0278,-2.0279,-2.0323,-2.0341,-2.0352,0,0,0,-2.0508,-2.052,-2.0479,-2.0486,-2.0436,-2.0408,-2.0362,-2.0339,-2.0316,-2.0284,-2.0278,-2.0279,-2.0322,-2.0339,-2.035,-2.0366,-2.0376,0,0,-2.0539,-2.0525,-2.0526,-2.0488,-2.0475,-2.0417,-2.041,-2.0359,-2.0328,-2.0297,-2.0297,-2.0326,-2.034,-2.0351,-2.0422,-2.043,0,0,0,-2.0547,-2.0548,-2.0538,-2.0519,-2.0482,-2.0452,-2.04,-2.0382,-2.0355,-2.0319,-2.0332,-2.034,-2.0345,-2.0351,-2.0358,-2.0361,-2.0284,-2.0284,-2.0284,-2.0633,-2.0595,-2.0595,-2.0548,-2.053,-2.0477,-2.0459,-2.0425,-2.0389,-2.0393,-2.0383,-2.0431,-2.044,-2.0445,-2.0448,-2.0389,-2.039,-2.039,-2.039,-2.0676,-2.0672,-2.0628,-2.0612,-2.0571,-2.0557,-2.0508,-2.0484,-2.0465,-2.0435,-2.0437,-2.0408,-2.0455,-2.0456,-2.0393,-2.0392,-2.0392,-2.0392,-2.0392,-2.0728,-2.072,-2.0699,-2.0668,-2.0648,-2.0599,-2.0584,-2.0547,-2.0511,-2.0514,-2.05,-2.0499,-2.0493,-2.051,-2.051,-2.051,-2.0511,-2.0511,-2.0511,-2.079,-2.0765,-2.0757,-2.0721,-2.0704,-2.0678,-2.0627,-2.0609,-2.058,-2.0553,-2.0553,-2.0518,-2.0467,-2.0455,-2.0513,-2.0513,-2.0512,-2.0512,-2.0512,-2.0847,-2.0829,-2.0817,-2.0801,-2.0756,-2.0739,-2.0693,-2.066,-2.064,-2.0634,-2.0599,-2.0568,-2.0549,-2.0543,-2.0533,-2.0607,-2.0607,-2.0607,-2.0607,-2.0891,-2.0879,-2.0859,-2.0836,-2.0808,-2.0766,-2.0753,-2.0714,-2.067,-2.0656,-2.064,-2.0623,-2.0619,-2.0603,-2.0596,-2.0585,-2.0672,-2.0672,-2.0672,-2.0924,-2.0908,-2.0905,-2.0863,-2.0826,-2.0795,-2.0782,-2.0756,-2.0703,-2.0673,-2.0643,-2.0641,-2.0613,-2.0607,-2.0575,-2.0565,-2.0546,0,0]},{"header":{"parameterUnit":"m.s-1","parameterCategory":1,"la1":30.2992,"la2":30.254,"lo1":-89.0895,"lo2":-89.0443,"dy":0.0025,"dx":0.0025,"nx":19,"ny":19,"refTime":"2026-04-15T21:00:00:Z","depth":0,"parameterNumber":3,"parameterNumberName":"V-component_of_WINDS"},"data":[0,0,0,4.0363,4.0361,4.0276,4.0276,4.0157,4.0156,0,0,0,0,0,0,0,0,0,0,0,4.0384,4.0383,4.0364,4.0361,4.0276,4.0276,4.0157,4.0155,0,0,0,0,0,0,0,0,0,0,0,4.0385,4.0384,4.0382,4.0361,4.0276,4.0276,4.0157,4.0225,0,0,0,0,0,0,0,0,0,0,4.0309,4.0324,4.0384,4.0382,4.036,4.0276,4.0276,4.0228,4.022,4.0192,0,4.0167,0,4.0159,4.0147,4.0147,0,0,0,4.0364,4.033,4.0312,4.0382,4.036,4.0276,4.0315,4.0224,4.0215,4.0182,4.0165,4.0161,4.0157,4.0146,4.0146,3.9978,3.9978,0,0,4.0368,4.0366,4.0318,4.0306,4.0321,4.0318,4.0313,4.0219,4.0199,4.0165,4.0158,4.0156,4.0145,4.0144,3.9979,3.9978,0,0,0,4.038,4.0369,4.0353,4.0311,4.0297,4.0315,4.0309,4.0204,4.0199,4.0157,4.0154,4.0145,4.0143,3.998,3.9979,3.9933,0,0,0,4.0383,4.0376,4.0355,4.0352,4.0298,4.0249,4.0296,4.0205,4.0195,4.0155,4.0145,4.0142,3.9981,3.998,3.9936,3.991,0,0,0,4.0391,4.0377,4.0363,4.0352,4.0316,4.0251,4.0241,4.0203,4.0193,4.0147,4.0142,3.9982,3.998,3.9939,3.9915,3.9866,0,0,0,4.0398,4.0321,4.0362,4.0276,4.0316,4.0224,4.0241,4.0172,4.0127,4.0144,3.9981,3.9979,3.994,3.9918,3.9869,3.9824,3.9805,0,0,4.0299,4.0309,4.0258,4.0293,4.0193,4.0237,4.013,4.0089,4.0086,4.0014,4.001,3.9935,3.9916,3.9867,3.9701,3.9686,0,0,0,4.0226,4.0189,4.0163,4.0122,4.0092,4.0064,4.0041,4.0027,3.9967,4.005,3.9905,3.9893,3.9864,3.9843,3.983,3.9805,3.9969,3.9969,3.997,4.0079,4.0083,3.9999,3.9994,3.9953,3.9933,3.99,3.9877,3.9889,3.9856,3.9833,3.9733,3.9708,3.9698,3.9673,3.9811,3.9811,3.981,3.981,3.9934,3.9882,3.9906,3.9833,3.9838,3.9776,3.9754,3.9766,3.9709,3.9749,3.9724,3.9767,3.9681,3.9659,3.9807,3.9807,3.9808,3.9808,3.9808,3.9836,3.9813,3.98,3.9743,3.9699,3.9695,3.9641,3.9646,3.965,3.9625,3.9603,3.9604,3.9605,3.9615,3.9615,3.9614,3.9614,3.9614,3.9614,3.974,3.9727,3.9682,3.9647,3.9623,3.9592,3.9574,3.9549,3.9524,3.9532,3.9531,3.9547,3.9674,3.9704,3.9608,3.9609,3.961,3.961,3.9611,3.9589,3.9625,3.9555,3.9531,3.9492,3.9448,3.9458,3.9409,3.939,3.9363,3.9386,3.9479,3.9488,3.9498,3.9523,3.9386,3.9386,3.9386,3.9386,3.9506,3.9513,3.9444,3.9406,3.937,3.9373,3.9293,3.9279,3.927,3.9258,3.928,3.9315,3.9325,3.9328,3.9342,3.9365,3.9191,3.9191,3.9191,3.9413,3.9418,3.9349,3.9344,3.9315,3.9289,3.9215,3.9169,3.9166,3.9183,3.9249,3.9258,3.9314,3.9333,3.9347,3.9369,3.9412,0,0]}]]